Regional Weather Roundup
Issued by NWS

Current Version | Previous Version | Text Only | Print | Product List | Glossary Off
Versions: 1 2 3 4 5 6 7 8 9 10 11 12 13 14 15 16 17 18 19 20 21 22 23 24 25 26 27
000 ASUS45 KPSR 201410 RWRAZ ARIZONA HOURLY REGIONAL WEATHER ROUNDUP NATIONAL WEATHER SERVICE PHOENIX AZ 700 AM MST FRI MAY 20 2022 NOTE: FAIR INDICATES FEW OR NO CLOUDS BELOW 12,000 FEET WITH NO SIGNIFICANT WEATHER AND/OR OBSTRUCTIONS TO VISIBILITY. AZZ001>003-036-201500- NORTHWEST ARIZONA CITY SKY/WX TMP DP RH WIND PRES REMARKS BULLHEAD CITY FAIR 79 34 19 SW6 29.53R KINGMAN FAIR 72 33 24 SW8 29.66R $$ AZZ004>008-015-016-018-201500- NORTH CENTRAL ARIZONA CITY SKY/WX TMP DP RH WIND PRES REMARKS GRAND CANYON FAIR 54 29 38 SW14G22 29.77S WILLIAMS FAIR 55 27 33 S21G30 29.81R PRESCOTT FAIR 60 28 29 S12 29.78R FLAGSTAFF FAIR 50 25 37 SW15G23 29.83R PAYSON FAIR 61 16 17 S9 29.84S PAGE FAIR 61 24 24 NW14G26 29.63R $$ AZZ009>014-017-201500- NORTHEAST ARIZONA CITY SKY/WX TMP DP RH WIND PRES REMARKS WINSLOW FAIR 65 19 17 SW16G25 29.74R SAINT JOHNS FAIR 64 11 12 S9 29.77S WINDOW ROCK FAIR 58 17 20 SW16G22 29.82R SHOW LOW FAIR 57 19 23 S31G38 29.83F $$ AZZ540-542>544-546-548-201500- GREATER PHOENIX AREA CITY SKY/WX TMP DP RH WIND PRES REMARKS PHOENIX FAIR 74 26 16 E7 29.63R BUCKEYE N/A 75 23 14 E9 29.64R GLENDALE SUNNY 70 28 21 CALM 29.62 DEER VALLEY FAIR 73 22 14 E5 29.66R SCOTTSDALE FAIR 75 22 13 VRB5 29.67R MESA-FALCON FAIR 77 26 15 SE10 29.65R MESA-GATEWAY SUNNY 73 28 19 SE13 29.67R CHANDLER SUNNY 79 27 14 SE10 29.65 $$ AZZ539-553-201500- SOUTHWEST MARICOPA COUNTY AND PINAL COUNTY CITY SKY/WX TMP DP RH WIND PRES REMARKS CASA GRANDE FAIR 73 27 18 E7 29.67R $$ AZZ503-504-507>509-201500- SOUTHEAST ARIZONA CITY SKY/WX TMP DP RH WIND PRES REMARKS TUCSON FAIR 73 32 22 SE9 29.78R DAVIS-MONTHAN FAIR 71 32 23 E7 29.75R RYAN FIELD SUNNY 66 27 22 E5 29.74R NOGALES FAIR 65 29 25 S8 29.86R SAFFORD FAIR 67 30 25 E6 29.76R $$ AZZ532-201500- SOUTHWEST ARIZONA CITY SKY/WX TMP DP RH WIND PRES REMARKS YUMA FAIR 73 55 53 SE17 29.59R $$ CAZ041-043-047-048-061-525>527-560>570-201500- SOUTHERN CALIFORNIA CITY SKY/WX TMP DP RH WIND PRES REMARKS DOWNTOWN L.A. CLOUDY 59 53 80 CALM 29.78R L.A. AIRPORT CLOUDY 59 54 83 SE5 29.79R SAN DIEGO CLOUDY 59 56 89 S10G23 29.81S BURBANK CLOUDY 59 54 83 SE5 29.79R HAZE ONTARIO CLOUDY 56 53 90 W10 29.78R RIVERSIDE CLOUDY 57 53 86 CALM 29.79R PALM SPRINGS FAIR 71 50 47 NW16 29.59R EL CENTRO NAS FAIR 71 55 56 SE6 29.59R IMPERIAL FAIR 70 55 59 SE6 29.57R BLYTHE FAIR 73 52 47 S17 29.56S NEEDLES FAIR 81 37 20 SW12 29.54R $$ NVZ020-UTZ003-201500- SOUTHERN NEVADA-UTAH CITY SKY/WX TMP DP RH WIND PRES REMARKS LAS VEGAS FAIR 71 18 13 NE21G30 29.62R SALT LAKE CITY PTSUNNY 44 22 41 NW10 29.89R $$ NMZ009-TXZ055-201500- NEW MEXICO-WEST TEXAS CITY SKY/WX TMP DP RH WIND PRES REMARKS ALBUQUERQUE FAIR 65 22 19 S10 29.77S EL PASO PTSUNNY 74 30 19 W17G29 29.80R $$ ........................KEY........................ SKY/WX - SKY CONDITION/WEATHER TMP - TEMPERATURE IN FAHRENHEIT DP - DEW POINT IN FAHRENHEIT RH - RELATIVE HUMIDITY IN PERCENT WIND - DIRECTION AND SPEED IN MILES PER HOUR (MPH) VRB - VARIABLE WIND DIRECTION PRES - MEAN SEA LEVEL PRESSURE IN INCHES OF MERCURY F - FALLING PRESSURE R - RISING PRESSURE S - STEADY PRESSURE VSB - VISIBILITY IN MILES HX - HEAT INDEX IN FAHRENHEIT WCI - WIND CHILL INDEX IN FAHRENHEIT TC - TEMPERATURE IN CELSIUS WHICH IS ALSO KNOWN AS TEMPERATURE IN CENTIGRADE AFB - AIR FORCE BASE LUKE AFB IS LUKE AIR FORCE BASE DAVIS-MONTHAN IS DAVIS-MONTHAN AIR FORCE BASE NAS - NAVAL AIR STATION EL CENTRO NAS IS EL CENTRO NAVAL AIR STATION N/A - NOT AVAILABLE

USA.gov is the U.S. government's official web portal to all federal, state and local government web resources and services.